TimeCDT,TemperatureF,Dew PointF,Humidity,Sea Level PressureIn,VisibilityMPH,Wind Direction,Wind SpeedMPH,Gust SpeedMPH,PrecipitationIn,Events,Conditions,WindDirDegrees,DateUTC
12:52 AM,62.1,55.9,80,29.97,10.0,South,4.6,-,N/A,,Clear,190,2013-10-10 05:52:00
1:52 AM,61.0,55.0,81,29.97,10.0,SSW,5.8,-,N/A,,Clear,210,2013-10-10 06:52:00
2:52 AM,60.1,55.0,83,29.97,10.0,SSW,4.6,-,N/A,,Clear,210,2013-10-10 07:52:00
3:52 AM,57.9,54.0,87,29.97,10.0,Calm,Calm,-,N/A,,Clear,0,2013-10-10 08:52:00
4:52 AM,57.9,54.0,87,29.97,10.0,South,4.6,-,N/A,,Clear,190,2013-10-10 09:52:00
5:52 AM,59.0,54.0,83,29.97,10.0,SSW,9.2,-,N/A,,Clear,200,2013-10-10 10:52:00
6:52 AM,57.9,54.0,87,29.97,10.0,South,6.9,-,N/A,,Clear,180,2013-10-10 11:52:00
7:52 AM,57.0,54.0,89,29.98,10.0,SSW,6.9,-,N/A,,Clear,200,2013-10-10 12:52:00
8:52 AM,61.0,55.0,81,29.98,10.0,South,8.1,-,N/A,,Clear,190,2013-10-10 13:52:00
9:52 AM,66.0,55.0,68,29.97,10.0,South,10.4,-,N/A,,Clear,190,2013-10-10 14:52:00
10:52 AM,72.0,57.0,59,29.97,10.0,South,11.5,-,N/A,,Clear,180,2013-10-10 15:52:00
11:52 AM,75.9,57.9,54,29.94,10.0,South,12.7,21.9,N/A,,Clear,170,2013-10-10 16:52:00
12:52 PM,79.0,57.9,48,29.91,10.0,South,18.4,25.3,N/A,,Clear,190,2013-10-10 17:52:00
1:52 PM,80.1,57.9,47,29.88,10.0,SSE,19.6,26.5,N/A,,Clear,160,2013-10-10 18:52:00
2:52 PM,81.0,59.0,47,29.86,10.0,SSE,18.4,28.8,N/A,,Clear,160,2013-10-10 19:52:00
3:52 PM,81.0,59.0,47,29.84,10.0,South,15.0,26.5,N/A,,Clear,170,2013-10-10 20:52:00
4:52 PM,80.1,59.0,48,29.83,10.0,South,17.3,26.5,N/A,,Clear,170,2013-10-10 21:52:00
5:52 PM,78.1,59.0,52,29.82,10.0,SSE,10.4,23.0,N/A,,Clear,150,2013-10-10 22:52:00
6:52 PM,73.9,59.0,59,29.82,10.0,SSE,9.2,-,N/A,,Clear,150,2013-10-10 23:52:00
7:52 PM,72.0,57.9,61,29.83,10.0,SSE,10.4,-,N/A,,Clear,150,2013-10-11 00:52:00
8:52 PM,69.1,57.0,65,29.82,10.0,SSE,6.9,-,N/A,,Clear,150,2013-10-11 01:52:00
9:52 PM,68.0,57.0,68,29.81,10.0,SSE,8.1,-,N/A,,Clear,150,2013-10-11 02:52:00
10:52 PM,68.0,57.0,68,29.79,10.0,South,15.0,21.9,N/A,,Clear,170,2013-10-11 03:52:00
11:52 PM,66.9,57.0,70,29.78,10.0,South,12.7,23.0,N/A,,Clear,170,2013-10-11 04:52:00